Location: Doschendorf
(50.0069°N, 11.0602°E)
Time: 06:08:51
(UTC+00:00)

NOSS 3-2 (A) - Pass Details

Date: 17 November 2019
Orbit: 815 x 1393 km, 63.4° (Epoch: 25 November)

Event Time Altitude Azimuth Distance (km) Brightness Sun altitude
Rises 17:29:17 0° 310° (NW) 3,798 7.2 -19.0°
Reaches altitude 10° 17:31:59 10° 319° (NW) 2,928 6.4 -19.4°
Maximum altitude 17:38:34 40° 28° (NNE) 1,687 4.5 -20.5°
Enters shadow 17:41:07 32° 67° (ENE) 1,982 4.6 -20.9°
